Tracking 19638 objects as of 19-Apr-2019
HD Live streaming from Space Station
objects crossing your sky now

CARTOSAT 2D

Track CARTOSAT 2D now!
10-day predictions


NORAD ID: 41948
Int'l Code: 2017-008A
Perigee: 509.6 km
Apogee: 520.7 km
Inclination: 97.4 °
Period: 94.8 minutes
Semi major axis: 6886 km
RCS: Unknown
Launch date: February 15, 2017
Source: India (IND)
Launch site: SRIHARIKOTA (SRI)
aabbcc
Your satellite tracking list
Your tracking list is empty




NASA's NSSDC Master Catalog

Two Line Element Set (TLE):
1 41948U 17008A   19108.78035645  .00000452  00000-0  24598-4 0  9992
2 41948  97.4021 170.3571 0008055  49.5796 310.6110 15.19270509120333
Source of the keplerian elements: AFSPC